Location: ???? ???
(30.5005°N, 60.5936°E)
Time: 13:18:42
(UTC+00:00)

COSMOS 2428 - Pass Details

Date: 07 June 2020
Orbit: 845 x 858 km, 70.9° (Epoch: 07 July)

Event Time Altitude Azimuth Distance (km) Brightness Sun altitude
Exits shadow 00:24:47 - 245° (WSW) 2,679 4.6 -6.5°
Reaches altitude 10° 00:25:32 10° 250° (WSW) 2,463 4.5 -6.4°
Maximum altitude 00:29:46 21° 299° (WNW) 1,791 4.1 -5.6°
Drops below altitude 10° 00:34:02 10° 348° (NNW) 2,468 5.4 -4.8°
Sets 00:37:05 0° 4° (N) 3,406 6.4 -4.2°
